Time,TemperatureF,DewpointF,PressureIn,WindDirection,WindDirectionDegrees,WindSpeedMPH,WindSpeedGustMPH,Humidity,HourlyPrecipIn,Conditions,Clouds,dailyrainin,SoftwareType,DateUTC
2013-05-21 00:00:00,67.5,64.3,30.01,West,266,0.0,238.7,90,0.02,,,0.00,VWS V14.01,2013-05-21 04:00:00,
2013-05-21 00:01:00,67.4,64.2,30.01,West,266,0.0,238.7,89,0.02,,,0.00,VWS V14.01,2013-05-21 04:01:00,
2013-05-21 00:02:00,67.4,64.2,30.01,West,266,0.0,238.7,89,0.02,,,0.00,VWS V14.01,2013-05-21 04:02:00,
2013-05-21 00:03:00,65.8,63.1,30.01,West,266,0.0,238.7,91,0.02,,,0.00,VWS V14.01,2013-05-21 04:03:00,
2013-05-21 00:04:00,67.4,64.2,30.01,West,266,0.0,238.7,89,0.02,,,0.00,VWS V14.01,2013-05-21 04:04:00,
2013-05-21 00:05:00,67.3,64.0,30.01,West,266,0.0,238.7,89,0.02,,,0.00,VWS V14.01,2013-05-21 04:05:00,
2013-05-21 00:06:00,65.8,63.1,30.01,West,266,0.0,238.7,91,0.02,,,0.00,VWS V14.01,2013-05-21 04:06:00,
2013-05-21 00:07:00,65.8,63.1,30.01,West,266,0.0,238.7,91,0.02,,,0.00,VWS V14.01,2013-05-21 04:07:00,
2013-05-21 00:08:00,65.8,63.1,30.01,West,266,0.0,238.7,91,0.02,,,0.00,VWS V14.01,2013-05-21 04:08:00,
2013-05-21 00:09:00,65.8,63.2,30.01,West,266,0.0,238.7,91,0.02,,,0.00,VWS V14.01,2013-05-21 04:09:00,
2013-05-21 00:10:00,67.1,64.0,30.01,West,266,0.0,238.7,90,0.02,,,0.00,VWS V14.01,2013-05-21 04:10:00,
2013-05-21 00:11:00,65.8,63.2,30.01,West,266,0.0,238.7,91,0.02,,,0.00,VWS V14.01,2013-05-21 04:11:00,
2013-05-21 00:12:00,65.8,63.2,30.01,West,266,0.0,238.7,91,0.02,,,0.00,VWS V14.01,2013-05-21 04:12:00,
2013-05-21 00:13:00,65.8,63.3,30.01,West,266,0.0,238.7,92,0.02,,,0.00,VWS V14.01,2013-05-21 04:13:00,
2013-05-21 00:14:00,65.8,63.3,30.01,West,266,0.0,238.7,92,0.02,,,0.00,VWS V14.01,2013-05-21 04:14:00,
2013-05-21 00:15:00,66.9,63.8,30.01,West,266,0.0,238.7,90,0.02,,,0.00,VWS V14.01,2013-05-21 04:15:00,
2013-05-21 00:16:00,65.8,63.4,30.01,West,266,0.0,238.7,92,0.02,,,0.00,VWS V14.01,2013-05-21 04:16:00,
2013-05-21 00:17:00,65.8,63.4,30.01,West,266,0.0,238.7,92,0.02,,,0.00,VWS V14.01,2013-05-21 04:17:00,
2013-05-21 00:18:00,65.8,63.4,30.01,West,266,0.0,238.7,92,0.02,,,0.00,VWS V14.01,2013-05-21 04:18:00,
2013-05-21 00:19:00,65.8,63.4,30.01,West,266,0.0,238.7,92,0.02,,,0.00,VWS V14.01,2013-05-21 04:19:00,
2013-05-21 00:20:00,65.8,63.5,30.01,West,266,0.0,238.7,92,0.02,,,0.00,VWS V14.01,2013-05-21 04:20:00,
2013-05-21 00:21:00,66.8,63.9,30.01,West,266,0.0,238.7,90,0.02,,,0.00,VWS V14.01,2013-05-21 04:21:00,
2013-05-21 00:22:00,65.8,63.5,30.01,West,266,0.0,238.7,92,0.02,,,0.00,VWS V14.01,2013-05-21 04:22:00,
2013-05-21 00:23:00,65.8,63.5,30.01,West,266,0.0,238.7,92,0.02,,,0.00,VWS V14.01,2013-05-21 04:23:00,
2013-05-21 00:25:00,65.8,63.5,30.01,West,266,0.0,238.7,92,0.02,,,0.00,VWS V14.01,2013-05-21 04:25:00,
2013-05-21 00:26:00,66.6,63.7,30.01,West,266,0.0,238.7,90,0.02,,,0.00,VWS V14.01,2013-05-21 04:26:00,
2013-05-21 00:27:00,65.8,63.4,30.01,West,266,0.0,238.7,92,0.02,,,0.00,VWS V14.01,2013-05-21 04:27:00,
2013-05-21 00:28:00,65.8,63.4,30.01,West,266,0.0,238.7,92,0.02,,,0.00,VWS V14.01,2013-05-21 04:28:00,
2013-05-21 00:29:00,65.8,63.4,30.01,West,266,0.0,238.7,92,0.02,,,0.00,VWS V14.01,2013-05-21 04:29:00,
2013-05-21 00:30:00,65.7,63.2,30.01,West,266,0.0,238.7,92,0.02,,,0.00,VWS V14.01,2013-05-21 04:30:00,
2013-05-21 00:31:00,66.7,63.8,30.01,West,266,0.0,238.7,90,0.02,,,0.00,VWS V14.01,2013-05-21 04:31:00,
2013-05-21 00:32:00,65.8,63.3,30.00,West,266,0.0,238.7,92,0.02,,,0.00,VWS V14.01,2013-05-21 04:32:00,
2013-05-21 00:33:00,65.7,63.2,30.00,West,266,0.0,238.7,92,0.02,,,0.00,VWS V14.01,2013-05-21 04:33:00,
2013-05-21 00:34:00,65.8,63.3,30.00,West,266,0.0,238.7,92,0.02,,,0.00,VWS V14.01,2013-05-21 04:34:00,
2013-05-21 00:35:00,65.7,63.2,30.00,West,266,0.0,238.7,92,0.02,,,0.00,VWS V14.01,2013-05-21 04:35:00,
2013-05-21 00:36:00,66.6,63.8,30.01,West,266,0.0,238.7,91,0.02,,,0.00,VWS V14.01,2013-05-21 04:36:00,
2013-05-21 00:37:00,65.7,63.2,30.00,West,266,0.0,238.7,92,0.02,,,0.00,VWS V14.01,2013-05-21 04:37:00,
2013-05-21 00:38:00,65.7,63.2,30.00,West,266,0.0,238.7,92,0.02,,,0.00,VWS V14.01,2013-05-21 04:38:00,
2013-05-21 00:39:00,65.7,63.2,29.99,West,266,0.0,238.7,92,0.02,,,0.00,VWS V14.01,2013-05-21 04:39:00,
2013-05-21 00:40:00,65.7,63.2,29.99,West,266,0.0,238.7,92,0.02,,,0.00,VWS V14.01,2013-05-21 04:40:00,
2013-05-21 00:41:00,65.7,63.2,29.99,West,266,0.0,238.7,92,0.02,,,0.00,VWS V14.01,2013-05-21 04:41:00,
2013-05-21 00:42:00,66.5,63.7,30.00,West,266,0.0,238.7,91,0.02,,,0.00,VWS V14.01,2013-05-21 04:42:00,
2013-05-21 00:43:00,65.6,63.1,29.99,West,266,0.0,238.7,92,0.02,,,0.00,VWS V14.01,2013-05-21 04:43:00,
2013-05-21 00:44:00,65.6,63.1,29.99,West,266,0.0,238.7,92,0.02,,,0.00,VWS V14.01,2013-05-21 04:44:00,
2013-05-21 00:45:00,65.6,63.1,29.99,West,266,0.0,238.7,92,0.02,,,0.00,VWS V14.01,2013-05-21 04:45:00,
2013-05-21 00:46:00,65.6,63.1,29.99,West,266,0.0,238.7,92,0.02,,,0.00,VWS V14.01,2013-05-21 04:46:00,
2013-05-21 00:47:00,66.5,63.7,30.00,West,266,0.0,238.7,91,0.02,,,0.00,VWS V14.01,2013-05-21 04:47:00,
2013-05-21 00:48:00,65.6,63.1,29.99,West,266,0.0,238.7,92,0.02,,,0.00,VWS V14.01,2013-05-21 04:48:00,
2013-05-21 00:49:00,65.5,63.0,29.99,West,266,0.0,238.7,92,0.02,,,0.00,VWS V14.01,2013-05-21 04:49:00,
2013-05-21 00:51:00,65.5,63.0,29.99,West,266,0.0,238.7,92,0.02,,,0.00,VWS V14.01,2013-05-21 04:51:00,
2013-05-21 00:52:00,66.3,63.3,30.01,West,266,0.0,238.7,90,0.02,,,0.00,VWS V14.01,2013-05-21 04:52:00,
2013-05-21 00:53:00,65.4,62.9,29.99,West,266,0.0,238.7,92,0.02,,,0.00,VWS V14.01,2013-05-21 04:53:00,
2013-05-21 00:54:00,65.4,62.9,29.99,West,266,0.0,238.7,92,0.02,,,0.00,VWS V14.01,2013-05-21 04:54:00,
2013-05-21 00:55:00,65.3,62.8,29.98,West,266,0.0,238.7,92,0.02,,,0.00,VWS V14.01,2013-05-21 04:55:00,
2013-05-21 00:56:00,65.3,62.8,29.99,West,266,0.0,238.7,92,0.02,,,0.00,VWS V14.01,2013-05-21 04:56:00,
2013-05-21 00:57:00,65.3,62.8,29.98,West,266,0.0,238.7,92,0.02,,,0.00,VWS V14.01,2013-05-21 04:57:00,
2013-05-21 00:58:00,65.2,62.7,29.98,West,266,0.0,238.7,92,0.02,,,0.00,VWS V14.01,2013-05-21 04:58:00,
2013-05-21 00:59:00,65.2,62.7,29.98,West,266,0.0,238.7,92,0.02,,,0.00,VWS V14.01,2013-05-21 04:59:00,
2013-05-21 01:00:00,65.2,62.7,29.98,West,266,0.0,238.7,92,0.02,,,0.00,VWS V14.01,2013-05-21 05:00:00,
2013-05-21 01:01:00,65.2,62.7,29.98,West,266,0.0,238.7,92,0.02,,,0.00,VWS V14.01,2013-05-21 05:01:00,
2013-05-21 01:02:00,65.1,62.6,29.98,West,266,0.0,238.7,92,0.02,,,0.00,VWS V14.01,2013-05-21 05:02:00,
2013-05-21 01:03:00,65.2,62.7,29.98,West,266,0.0,238.7,92,0.02,,,0.00,VWS V14.01,2013-05-21 05:03:00,
2013-05-21 01:04:00,65.1,62.7,29.98,West,266,0.0,238.7,92,0.02,,,0.00,VWS V14.01,2013-05-21 05:04:00,
2013-05-21 01:05:00,65.0,62.6,29.98,West,266,0.0,238.7,92,0.02,,,0.00,VWS V14.01,2013-05-21 05:05:00,
2013-05-21 01:06:00,65.1,62.7,29.98,West,266,0.0,238.7,92,0.02,,,0.00,VWS V14.01,2013-05-21 05:06:00,
2013-05-21 01:07:00,65.0,62.6,29.98,West,266,0.0,238.7,92,0.02,,,0.00,VWS V14.01,2013-05-21 05:07:00,
2013-05-21 01:08:00,65.0,62.6,29.99,West,266,0.0,238.7,92,0.02,,,0.00,VWS V14.01,2013-05-21 05:08:00,
2013-05-21 01:09:00,65.0,62.7,29.99,West,266,0.0,238.7,92,0.02,,,0.00,VWS V14.01,2013-05-21 05:09:00,
2013-05-21 01:10:00,65.0,62.7,29.98,West,266,0.0,238.7,92,0.02,,,0.00,VWS V14.01,2013-05-21 05:10:00,
2013-05-21 01:11:00,64.9,62.6,29.98,West,266,0.0,238.7,92,0.02,,,0.00,VWS V14.01,2013-05-21 05:11:00,
2013-05-21 01:12:00,64.9,62.6,29.98,West,266,0.0,238.7,92,0.02,,,0.00,VWS V14.01,2013-05-21 05:12:00,
2013-05-21 01:13:00,64.9,62.6,29.98,West,266,0.0,238.7,92,0.02,,,0.00,VWS V14.01,2013-05-21 05:13:00,
2013-05-21 01:14:00,64.9,62.6,29.98,West,266,0.0,238.7,92,0.02,,,0.00,VWS V14.01,2013-05-21 05:14:00,
2013-05-21 01:15:00,64.8,62.4,29.97,West,266,0.0,238.7,92,0.02,,,0.00,VWS V14.01,2013-05-21 05:15:00,
2013-05-21 01:17:00,64.8,62.4,29.97,West,266,0.0,238.7,92,0.02,,,0.00,VWS V14.01,2013-05-21 05:17:00,
2013-05-21 01:18:00,64.8,62.4,29.97,West,266,0.0,238.7,92,0.02,,,0.00,VWS V14.01,2013-05-21 05:18:00,
2013-05-21 01:19:00,64.8,62.5,29.97,West,266,0.0,238.7,92,0.02,,,0.00,VWS V14.01,2013-05-21 05:19:00,
2013-05-21 01:20:00,64.8,62.5,29.97,West,266,0.0,238.7,92,0.02,,,0.00,VWS V14.01,2013-05-21 05:20:00,
2013-05-21 01:21:00,64.8,62.6,29.97,West,266,0.0,238.7,92,0.02,,,0.00,VWS V14.01,2013-05-21 05:21:00,
2013-05-21 01:22:00,64.8,62.6,29.97,West,266,0.0,238.7,93,0.02,,,0.00,VWS V14.01,2013-05-21 05:22:00,
2013-05-21 01:23:00,64.8,62.6,29.97,West,266,0.0,238.7,93,0.02,,,0.00,VWS V14.01,2013-05-21 05:23:00,
2013-05-21 01:24:00,64.8,62.6,29.97,West,266,0.0,238.7,93,0.02,,,0.00,VWS V14.01,2013-05-21 05:24:00,
2013-05-21 01:25:00,64.7,62.5,29.97,West,266,0.0,238.7,93,0.02,,,0.00,VWS V14.01,2013-05-21 05:25:00,
2013-05-21 01:26:00,64.8,62.7,29.97,West,266,0.0,238.7,93,0.02,,,0.00,VWS V14.01,2013-05-21 05:26:00,
2013-05-21 01:27:00,64.8,62.7,29.97,West,266,0.0,238.7,93,0.02,,,0.00,VWS V14.01,2013-05-21 05:27:00,
2013-05-21 01:28:00,64.7,62.6,29.97,West,266,0.0,238.7,93,0.02,,,0.00,VWS V14.01,2013-05-21 05:28:00,
2013-05-21 01:30:00,64.8,62.7,29.98,West,266,0.0,238.7,93,0.02,,,0.00,VWS V14.01,2013-05-21 05:30:00,
2013-05-21 01:31:00,64.7,62.6,29.98,West,266,0.0,238.7,93,0.02,,,0.00,VWS V14.01,2013-05-21 05:31:00,
2013-05-21 01:32:00,64.7,62.6,29.98,West,266,0.0,238.7,93,0.02,,,0.00,VWS V14.01,2013-05-21 05:32:00,
2013-05-21 01:33:00,64.7,62.6,29.98,West,266,0.0,238.7,93,0.02,,,0.00,VWS V14.01,2013-05-21 05:33:00,
2013-05-21 01:34:00,64.7,62.6,29.98,West,266,0.0,238.7,93,0.02,,,0.00,VWS V14.01,2013-05-21 05:34:00,
2013-05-21 01:35:00,64.7,62.6,29.98,West,266,0.0,238.7,93,0.02,,,0.00,VWS V14.01,2013-05-21 05:35:00,
2013-05-21 01:37:00,64.6,62.5,29.98,West,266,0.0,238.7,93,0.02,,,0.00,VWS V14.01,2013-05-21 05:37:00,
2013-05-21 01:38:00,64.6,62.5,29.98,West,266,0.0,238.7,93,0.02,,,0.00,VWS V14.01,2013-05-21 05:38:00,
2013-05-21 01:40:00,64.6,62.5,29.98,West,266,0.0,238.7,93,0.02,,,0.00,VWS V14.01,2013-05-21 05:40:00,
2013-05-21 01:43:00,64.4,62.2,29.98,West,266,0.0,238.7,93,0.02,,,0.00,VWS V14.01,2013-05-21 05:43:00,
2013-05-21 01:44:00,64.3,62.2,29.98,West,266,0.0,238.7,93,0.02,,,0.00,VWS V14.01,2013-05-21 05:44:00,
2013-05-21 01:47:00,64.3,62.1,29.98,West,266,0.0,238.7,93,0.02,,,0.00,VWS V14.01,2013-05-21 05:47:00,
2013-05-21 01:50:00,64.2,62.0,29.98,West,266,0.0,238.7,93,0.02,,,0.00,VWS V14.01,2013-05-21 05:50:00,
2013-05-21 02:04:00,64.0,62.0,29.97,West,266,0.0,238.7,93,0.02,,,0.00,VWS V14.01,2013-05-21 06:04:00,
2013-05-21 02:27:00,64.7,62.6,29.97,West,266,0.0,238.7,93,0.02,,,0.00,VWS V14.01,2013-05-21 06:27:00,
2013-05-21 02:34:00,64.7,62.6,29.98,West,266,0.0,238.7,93,0.02,,,0.00,VWS V14.01,2013-05-21 06:34:00,
2013-05-21 02:39:00,64.4,62.2,29.98,West,266,0.0,238.7,93,0.02,,,0.00,VWS V14.01,2013-05-21 06:39:00,
2013-05-21 02:45:00,64.2,62.0,29.98,West,266,0.0,238.7,93,0.02,,,0.00,VWS V14.01,2013-05-21 06:45:00,
2013-05-21 02:51:00,64.1,62.0,29.97,West,266,0.0,238.7,93,0.02,,,0.00,VWS V14.01,2013-05-21 06:51:00,
2013-05-21 02:56:00,64.1,62.0,29.97,West,266,0.0,238.7,93,0.02,,,0.00,VWS V14.01,2013-05-21 06:56:00,
2013-05-21 03:01:00,64.0,62.0,29.97,West,266,0.0,238.7,93,0.02,,,0.00,VWS V14.01,2013-05-21 07:01:00,
2013-05-21 03:06:00,64.1,62.1,29.97,West,266,0.0,238.7,93,0.02,,,0.00,VWS V14.01,2013-05-21 07:06:00,
2013-05-21 03:11:00,64.1,62.3,29.97,West,266,0.0,238.7,94,0.02,,,0.00,VWS V14.01,2013-05-21 07:11:00,
2013-05-21 03:17:00,64.2,62.3,29.97,West,266,0.0,238.7,94,0.02,,,0.00,VWS V14.01,2013-05-21 07:17:00,
2013-05-21 03:22:00,64.2,62.2,29.97,West,266,0.0,238.7,93,0.02,,,0.00,VWS V14.01,2013-05-21 07:22:00,
2013-05-21 03:27:00,64.2,62.1,29.96,West,266,0.0,238.7,93,0.02,,,0.00,VWS V14.01,2013-05-21 07:27:00,
2013-05-21 03:32:00,64.1,62.0,29.96,West,266,0.0,238.7,93,0.02,,,0.00,VWS V14.01,2013-05-21 07:32:00,
2013-05-21 03:37:00,64.0,61.9,29.96,West,266,0.0,238.7,93,0.02,,,0.00,VWS V14.01,2013-05-21 07:37:00,
2013-05-21 03:43:00,63.9,61.8,29.96,West,266,0.0,238.7,93,0.02,,,0.00,VWS V14.01,2013-05-21 07:43:00,
2013-05-21 03:48:00,63.8,61.7,29.96,West,266,0.0,238.7,93,0.02,,,0.00,VWS V14.01,2013-05-21 07:48:00,
2013-05-21 03:53:00,63.8,61.8,29.96,West,266,0.0,238.7,93,0.02,,,0.00,VWS V14.01,2013-05-21 07:53:00,
2013-05-21 03:58:00,63.8,61.9,29.96,West,266,0.0,238.7,94,0.02,,,0.00,VWS V14.01,2013-05-21 07:58:00,
2013-05-21 04:03:00,63.8,62.0,29.96,West,266,0.0,238.7,94,0.02,,,0.00,VWS V14.01,2013-05-21 08:03:00,
2013-05-21 04:08:00,63.8,62.0,29.96,West,266,0.0,238.7,94,0.02,,,0.00,VWS V14.01,2013-05-21 08:08:00,
2013-05-21 04:14:00,63.7,62.0,29.97,West,266,0.0,238.7,94,0.02,,,0.00,VWS V14.01,2013-05-21 08:14:00,
2013-05-21 04:19:00,63.7,62.0,29.97,West,266,0.0,238.7,94,0.02,,,0.00,VWS V14.01,2013-05-21 08:19:00,
2013-05-21 04:24:00,63.6,61.9,29.97,West,266,0.0,238.7,94,0.02,,,0.00,VWS V14.01,2013-05-21 08:24:00,
2013-05-21 04:29:00,63.5,61.8,29.97,West,266,0.0,238.7,94,0.02,,,0.00,VWS V14.01,2013-05-21 08:29:00,
2013-05-21 04:35:00,63.5,61.8,29.97,West,266,0.0,238.7,94,0.02,,,0.00,VWS V14.01,2013-05-21 08:35:00,
2013-05-21 04:40:00,63.5,61.8,29.97,West,266,0.0,238.7,94,0.02,,,0.00,VWS V14.01,2013-05-21 08:40:00,
2013-05-21 04:45:00,63.4,61.7,29.97,West,266,0.0,238.7,94,0.02,,,0.00,VWS V14.01,2013-05-21 08:45:00,
2013-05-21 04:51:00,63.5,61.9,29.97,West,266,0.0,238.7,95,0.02,,,0.00,VWS V14.01,2013-05-21 08:51:00,
2013-05-21 04:57:00,63.5,62.0,29.97,West,266,0.0,238.7,95,0.02,,,0.00,VWS V14.01,2013-05-21 08:57:00,
2013-05-21 05:03:00,63.5,61.9,29.98,West,266,0.0,238.7,95,0.02,,,0.00,VWS V14.01,2013-05-21 09:03:00,
2013-05-21 05:08:00,63.3,61.7,29.97,West,266,0.0,238.7,95,0.02,,,0.00,VWS V14.01,2013-05-21 09:08:00,
2013-05-21 05:13:00,63.3,61.7,29.97,West,266,0.0,238.7,94,0.02,,,0.00,VWS V14.01,2013-05-21 09:13:00,
2013-05-21 05:19:00,63.3,61.6,29.97,West,266,0.0,238.7,94,0.02,,,0.00,VWS V14.01,2013-05-21 09:19:00,
2013-05-21 05:25:00,63.3,61.5,29.97,West,266,0.0,238.7,94,0.02,,,0.00,VWS V14.01,2013-05-21 09:25:00,
2013-05-21 05:30:00,63.2,61.5,29.98,West,266,0.0,238.7,94,0.02,,,0.00,VWS V14.01,2013-05-21 09:30:00,
2013-05-21 05:36:00,63.1,61.4,29.98,West,266,0.0,238.7,94,0.02,,,0.00,VWS V14.01,2013-05-21 09:36:00,
2013-05-21 05:41:00,63.1,61.3,29.97,West,266,0.0,238.7,94,0.02,,,0.00,VWS V14.01,2013-05-21 09:41:00,
2013-05-21 05:46:00,63.0,61.2,29.97,West,266,0.0,238.7,94,0.02,,,0.00,VWS V14.01,2013-05-21 09:46:00,
2013-05-21 05:52:00,63.0,61.1,29.97,West,266,0.0,238.7,94,0.02,,,0.00,VWS V14.01,2013-05-21 09:52:00,
2013-05-21 05:57:00,62.9,61.1,29.98,West,266,0.0,238.7,94,0.02,,,0.00,VWS V14.01,2013-05-21 09:57:00,
2013-05-21 06:02:00,62.9,61.1,29.97,West,266,0.0,238.7,94,0.02,,,0.00,VWS V14.01,2013-05-21 10:02:00,
2013-05-21 06:07:00,62.9,61.2,29.97,West,266,0.0,238.7,94,0.02,,,0.00,VWS V14.01,2013-05-21 10:07:00,
2013-05-21 06:13:00,63.0,61.2,29.97,West,266,0.0,238.7,94,0.02,,,0.00,VWS V14.01,2013-05-21 10:13:00,
2013-05-21 06:19:00,63.2,61.6,29.97,West,266,0.0,238.7,94,0.02,,,0.00,VWS V14.01,2013-05-21 10:19:00,
2013-05-21 06:24:00,63.4,61.8,29.97,West,266,0.0,238.7,95,0.02,,,0.00,VWS V14.01,2013-05-21 10:24:00,
2013-05-21 06:30:00,63.6,62.0,29.97,West,266,0.0,238.7,95,0.02,,,0.00,VWS V14.01,2013-05-21 10:30:00,
2013-05-21 06:35:00,63.7,62.1,29.97,West,266,0.0,238.7,94,0.02,,,0.00,VWS V14.01,2013-05-21 10:35:00,
2013-05-21 06:41:00,63.7,62.2,29.97,West,266,0.0,238.7,95,0.02,,,0.00,VWS V14.01,2013-05-21 10:41:00,
2013-05-21 06:46:00,63.9,62.5,29.97,West,266,0.0,238.7,95,0.02,,,0.00,VWS V14.01,2013-05-21 10:46:00,
2013-05-21 06:52:00,64.1,62.8,29.98,West,266,0.0,238.7,95,0.02,,,0.00,VWS V14.01,2013-05-21 10:52:00,
2013-05-21 06:58:00,64.5,63.1,29.98,West,266,0.0,238.7,95,0.02,,,0.00,VWS V14.01,2013-05-21 10:58:00,
2013-05-21 07:03:00,64.9,63.7,29.98,West,266,0.0,238.7,96,0.02,,,0.00,VWS V14.01,2013-05-21 11:03:00,
2013-05-21 07:08:00,65.2,64.0,29.98,West,266,0.0,238.7,96,0.02,,,0.00,VWS V14.01,2013-05-21 11:08:00,
2013-05-21 07:13:00,65.5,64.3,29.98,West,264,0.0,238.7,96,0.02,,,0.00,VWS V14.01,2013-05-21 11:13:00,
2013-05-21 07:19:00,65.8,64.6,29.98,West,264,0.0,238.7,96,0.02,,,0.00,VWS V14.01,2013-05-21 11:19:00,
2013-05-21 07:24:00,65.9,64.6,29.98,West,264,0.0,238.7,96,0.02,,,0.00,VWS V14.01,2013-05-21 11:24:00,
2013-05-21 07:29:00,66.2,65.0,29.98,West,264,2.9,238.7,96,0.02,,,0.00,VWS V14.01,2013-05-21 11:29:00,
2013-05-21 07:34:00,66.7,65.6,29.98,West,264,0.0,238.7,96,0.02,,,0.00,VWS V14.01,2013-05-21 11:34:00,
2013-05-21 07:39:00,67.0,65.7,29.98,West,280,0.0,238.7,96,0.02,,,0.00,VWS V14.01,2013-05-21 11:39:00,
2013-05-21 07:45:00,67.3,66.0,29.98,West,280,0.0,238.7,96,0.02,,,0.00,VWS V14.01,2013-05-21 11:45:00,
2013-05-21 07:50:00,67.6,66.2,29.98,West,280,0.0,238.7,95,0.02,,,0.00,VWS V14.01,2013-05-21 11:50:00,
2013-05-21 07:55:00,67.8,66.3,29.99,West,280,0.0,238.7,95,0.02,,,0.00,VWS V14.01,2013-05-21 11:55:00,
2013-05-21 08:00:00,68.0,66.6,29.98,West,273,0.0,238.7,95,0.02,,,0.00,VWS V14.01,2013-05-21 12:00:00,
2013-05-21 08:05:00,68.3,66.8,29.98,West,273,0.0,238.7,95,0.02,,,0.00,VWS V14.01,2013-05-21 12:05:00,
2013-05-21 08:11:00,68.6,67.0,29.98,West,273,0.0,238.7,95,0.02,,,0.00,VWS V14.01,2013-05-21 12:11:00,
2013-05-21 08:16:00,69.1,67.3,29.98,West,273,0.0,238.7,94,0.02,,,0.00,VWS V14.01,2013-05-21 12:16:00,
2013-05-21 08:21:00,69.4,67.5,29.98,West,273,0.0,238.7,94,0.02,,,0.00,VWS V14.01,2013-05-21 12:21:00,
2013-05-21 08:26:00,69.7,67.7,29.98,West,273,0.0,238.7,93,0.02,,,0.00,VWS V14.01,2013-05-21 12:26:00,
2013-05-21 08:31:00,70.1,68.0,29.98,West,273,0.0,238.7,93,0.02,,,0.00,VWS V14.01,2013-05-21 12:31:00,
2013-05-21 08:37:00,70.5,68.3,29.98,West,273,0.0,238.7,93,0.02,,,0.00,VWS V14.01,2013-05-21 12:37:00,
2013-05-21 08:42:00,70.9,68.5,29.98,SSW,208,0.0,238.7,92,0.02,,,0.00,VWS V14.01,2013-05-21 12:42:00,
2013-05-21 08:47:00,71.3,68.6,29.98,SSW,208,0.0,238.7,91,0.02,,,0.00,VWS V14.01,2013-05-21 12:47:00,
2013-05-21 08:52:00,71.6,68.8,29.98,SSW,208,0.0,238.7,91,0.02,,,0.00,VWS V14.01,2013-05-21 12:52:00,
2013-05-21 08:57:00,72.0,69.0,29.98,SSW,208,0.0,238.7,90,0.02,,,0.00,VWS V14.01,2013-05-21 12:57:00,
2013-05-21 09:03:00,72.5,69.5,29.98,SSW,208,0.0,238.7,90,0.02,,,0.00,VWS V14.01,2013-05-21 13:03:00,
2013-05-21 09:08:00,72.9,69.4,29.98,SSW,208,0.0,238.7,89,0.02,,,0.00,VWS V14.01,2013-05-21 13:08:00,
2013-05-21 09:13:00,73.3,69.5,29.98,SSW,208,0.0,238.7,88,0.02,,,0.00,VWS V14.01,2013-05-21 13:13:00,
2013-05-21 09:18:00,73.6,69.3,29.98,North,359,3.0,238.7,86,0.02,,,0.00,VWS V14.01,2013-05-21 13:18:00,
2013-05-21 09:23:00,73.8,69.4,29.98,WNW,284,0.0,238.7,86,0.02,,,0.00,VWS V14.01,2013-05-21 13:23:00,
2013-05-21 09:29:00,74.2,69.3,29.98,NW,309,0.0,238.7,85,0.02,,,0.00,VWS V14.01,2013-05-21 13:29:00,
2013-05-21 09:34:00,74.7,69.2,29.97,NW,309,0.0,238.7,83,0.02,,,0.00,VWS V14.01,2013-05-21 13:34:00,
2013-05-21 09:39:00,75.3,69.8,29.97,SSE,156,0.0,238.7,83,0.02,,,0.00,VWS V14.01,2013-05-21 13:39:00,
2013-05-21 09:44:00,75.9,69.5,29.97,WSW,250,0.0,238.7,81,0.02,,,0.00,VWS V14.01,2013-05-21 13:44:00,
2013-05-21 09:49:00,76.2,69.5,29.97,WNW,284,0.0,238.7,80,0.02,,,0.00,VWS V14.01,2013-05-21 13:49:00,
2013-05-21 09:54:00,76.7,69.6,29.97,North,359,0.0,238.7,79,0.02,,,0.00,VWS V14.01,2013-05-21 13:54:00,
2013-05-21 10:00:00,77.2,68.8,29.97,SSE,152,0.0,238.7,75,0.02,,,0.00,VWS V14.01,2013-05-21 14:00:00,
2013-05-21 10:05:00,77.8,69.2,29.97,SSE,152,0.0,238.7,75,0.02,,,0.00,VWS V14.01,2013-05-21 14:05:00,
2013-05-21 10:10:00,77.9,69.3,29.97,SSE,152,0.0,238.7,75,0.02,,,0.00,VWS V14.01,2013-05-21 14:10:00,
2013-05-21 10:15:00,78.4,69.3,29.97,SSE,152,0.0,238.7,74,0.02,,,0.00,VWS V14.01,2013-05-21 14:15:00,
2013-05-21 10:20:00,79.0,69.0,29.97,SSE,152,0.0,238.7,72,0.02,,,0.00,VWS V14.01,2013-05-21 14:20:00,
2013-05-21 10:26:00,79.2,67.8,29.97,WSW,245,3.4,238.7,68,0.02,,,0.00,VWS V14.01,2013-05-21 14:26:00,
2013-05-21 10:31:00,79.3,67.8,29.97,WNW,297,3.0,238.7,68,0.02,,,0.00,VWS V14.01,2013-05-21 14:31:00,
2013-05-21 10:36:00,79.9,68.4,29.97,WNW,297,0.0,238.7,68,0.02,,,0.00,VWS V14.01,2013-05-21 14:36:00,
2013-05-21 10:41:00,80.0,67.9,29.96,WNW,298,3.2,238.7,67,0.02,,,0.00,VWS V14.01,2013-05-21 14:41:00,
2013-05-21 10:46:00,80.1,68.2,29.97,NNE,22,0.0,238.7,67,0.02,,,0.00,VWS V14.01,2013-05-21 14:46:00,
2013-05-21 10:52:00,80.5,68.1,29.96,NNE,14,0.0,238.7,66,0.02,,,0.00,VWS V14.01,2013-05-21 14:52:00,
2013-05-21 10:57:00,81.1,68.4,29.97,SW,214,0.0,238.7,66,0.02,,,0.00,VWS V14.01,2013-05-21 14:57:00,
2013-05-21 11:02:00,81.5,67.9,29.97,West,263,0.0,238.7,64,0.02,,,0.00,VWS V14.01,2013-05-21 15:02:00,
2013-05-21 11:07:00,81.7,68.2,29.97,WSW,257,0.0,238.7,64,0.02,,,0.00,VWS V14.01,2013-05-21 15:07:00,
2013-05-21 11:12:00,82.1,67.9,29.97,SW,226,0.0,238.7,62,0.02,,,0.00,VWS V14.01,2013-05-21 15:12:00,
2013-05-21 11:18:00,82.1,68.2,29.96,SW,226,0.0,238.7,63,0.02,,,0.00,VWS V14.01,2013-05-21 15:18:00,
2013-05-21 11:23:00,82.4,69.0,29.96,SW,226,0.0,238.7,64,0.02,,,0.00,VWS V14.01,2013-05-21 15:23:00,
2013-05-21 11:28:00,82.8,68.7,29.96,SW,226,0.0,238.7,63,0.02,,,0.00,VWS V14.01,2013-05-21 15:28:00,
2013-05-21 11:33:00,83.5,67.8,29.95,West,277,0.0,238.7,59,0.02,,,0.00,VWS V14.01,2013-05-21 15:33:00,
2013-05-21 11:38:00,84.1,67.7,29.95,SW,232,0.0,238.7,58,0.02,,,0.00,VWS V14.01,2013-05-21 15:38:00,
2013-05-21 11:44:00,84.7,66.6,29.95,NW,314,0.0,238.7,55,0.02,,,0.00,VWS V14.01,2013-05-21 15:44:00,
2013-05-21 11:49:00,85.4,67.5,29.95,WSW,246,0.0,238.7,55,0.02,,,0.00,VWS V14.01,2013-05-21 15:49:00,
2013-05-21 11:54:00,86.0,67.8,29.95,WSW,246,0.0,238.7,55,0.02,,,0.00,VWS V14.01,2013-05-21 15:54:00,
2013-05-21 11:59:00,86.9,67.8,29.95,West,278,0.0,238.7,53,0.02,,,0.00,VWS V14.01,2013-05-21 15:59:00,
2013-05-21 12:04:00,87.5,67.2,29.94,West,278,0.0,238.7,51,0.02,,,0.00,VWS V14.01,2013-05-21 16:04:00,
2013-05-21 12:10:00,87.8,66.6,29.94,WSW,255,0.0,238.7,50,0.02,,,0.00,VWS V14.01,2013-05-21 16:10:00,
2013-05-21 12:15:00,88.1,67.5,29.94,WSW,255,0.0,238.7,51,0.02,,,0.00,VWS V14.01,2013-05-21 16:15:00,
2013-05-21 12:20:00,88.0,66.9,29.94,West,274,0.0,238.7,50,0.02,,,0.00,VWS V14.01,2013-05-21 16:20:00,
2013-05-21 12:25:00,87.7,66.8,29.94,West,276,0.0,238.7,50,0.02,,,0.00,VWS V14.01,2013-05-21 16:25:00,
2013-05-21 12:30:00,87.7,66.2,29.94,SE,139,0.0,238.7,49,0.02,,,0.00,VWS V14.01,2013-05-21 16:30:00,
2013-05-21 12:36:00,88.4,66.4,29.93,SSW,205,2.9,238.7,48,0.02,,,0.00,VWS V14.01,2013-05-21 16:36:00,
2013-05-21 12:41:00,89.1,67.3,29.94,SSW,205,0.0,238.7,49,0.02,,,0.00,VWS V14.01,2013-05-21 16:41:00,
2013-05-21 12:46:00,89.7,66.2,29.94,SSW,205,0.0,238.7,46,0.02,,,0.00,VWS V14.01,2013-05-21 16:46:00,
2013-05-21 12:51:00,89.7,66.7,29.94,ENE,60,0.0,238.7,47,0.02,,,0.00,VWS V14.01,2013-05-21 16:51:00,
2013-05-21 12:57:00,89.7,65.8,29.93,SSW,201,0.0,238.7,45,0.02,,,0.00,VWS V14.01,2013-05-21 16:57:00,
2013-05-21 13:02:00,89.8,67.2,29.93,WNW,288,6.1,238.7,48,0.02,,,0.00,VWS V14.01,2013-05-21 17:02:00,
2013-05-21 13:07:00,89.9,66.5,29.93,WNW,283,0.0,238.7,46,0.02,,,0.00,VWS V14.01,2013-05-21 17:07:00,
2013-05-21 13:12:00,90.0,67.0,29.93,SE,128,0.0,238.7,47,0.02,,,0.00,VWS V14.01,2013-05-21 17:12:00,
2013-05-21 13:17:00,90.6,67.1,29.93,SW,221,0.0,238.7,46,0.02,,,0.00,VWS V14.01,2013-05-21 17:17:00,
2013-05-21 13:23:00,90.7,67.2,29.93,SSE,150,0.0,238.7,46,0.02,,,0.00,VWS V14.01,2013-05-21 17:23:00,
2013-05-21 13:28:00,90.6,66.8,29.92,West,260,0.0,238.7,46,0.02,,,0.00,VWS V14.01,2013-05-21 17:28:00,
2013-05-21 13:33:00,91.2,67.9,29.92,ESE,112,0.0,238.7,46,0.02,,,0.00,VWS V14.01,2013-05-21 17:33:00,
2013-05-21 13:38:00,92.2,67.1,29.92,ESE,112,0.0,238.7,44,0.02,,,0.00,VWS V14.01,2013-05-21 17:38:00,
2013-05-21 13:43:00,92.7,66.9,29.92,SW,233,0.0,238.7,43,0.02,,,0.00,VWS V14.01,2013-05-21 17:43:00,
2013-05-21 13:49:00,92.5,66.9,29.91,SW,233,0.0,238.7,43,0.02,,,0.00,VWS V14.01,2013-05-21 17:49:00,
2013-05-21 13:54:00,92.1,66.5,29.91,SW,236,0.0,238.7,43,0.02,,,0.00,VWS V14.01,2013-05-21 17:54:00,
2013-05-21 13:59:00,92.3,66.2,29.91,ESE,121,0.0,238.7,42,0.02,,,0.00,VWS V14.01,2013-05-21 17:59:00,
2013-05-21 14:04:00,91.9,66.6,29.92,ESE,121,0.0,238.7,44,0.02,,,0.00,VWS V14.01,2013-05-21 18:04:00,
2013-05-21 14:09:00,91.2,67.0,29.92,ESE,121,0.0,238.7,45,0.02,,,0.00,VWS V14.01,2013-05-21 18:09:00,
2013-05-21 14:15:00,91.4,65.8,29.91,WSW,255,0.0,238.7,43,0.02,,,0.00,VWS V14.01,2013-05-21 18:15:00,
2013-05-21 14:20:00,91.8,65.7,29.92,SW,229,0.0,238.7,42,0.02,,,0.00,VWS V14.01,2013-05-21 18:20:00,
2013-05-21 14:25:00,92.1,65.6,29.91,SW,224,0.0,238.7,42,0.02,,,0.00,VWS V14.01,2013-05-21 18:25:00,
2013-05-21 14:30:00,92.7,66.3,29.91,West,277,0.0,238.7,42,0.02,,,0.00,VWS V14.01,2013-05-21 18:30:00,
2013-05-21 14:35:00,93.0,65.8,29.91,WNW,292,0.0,238.7,41,0.02,,,0.00,VWS V14.01,2013-05-21 18:35:00,
2013-05-21 14:41:00,93.1,66.3,29.91,NW,309,0.0,238.7,42,0.02,,,0.00,VWS V14.01,2013-05-21 18:41:00,
2013-05-21 14:46:00,93.2,65.6,29.91,WNW,292,0.0,238.7,40,0.02,,,0.00,VWS V14.01,2013-05-21 18:46:00,
2013-05-21 14:51:00,93.0,65.6,29.91,NW,321,0.0,238.7,41,0.02,,,0.00,VWS V14.01,2013-05-21 18:51:00,
2013-05-21 14:56:00,93.4,66.6,29.91,West,270,0.0,238.7,42,0.02,,,0.00,VWS V14.01,2013-05-21 18:56:00,
2013-05-21 15:01:00,93.7,65.8,29.90,SW,224,0.0,238.7,40,0.02,,,0.00,VWS V14.01,2013-05-21 19:01:00,
2013-05-21 15:07:00,93.7,66.3,29.90,SE,125,2.7,238.7,41,0.02,,,0.00,VWS V14.01,2013-05-21 19:07:00,
2013-05-21 15:12:00,93.2,65.2,29.90,West,277,0.0,238.7,40,0.02,,,0.00,VWS V14.01,2013-05-21 19:12:00,
2013-05-21 15:17:00,93.1,65.2,29.90,SW,221,0.0,238.7,40,0.02,,,0.00,VWS V14.01,2013-05-21 19:17:00,
2013-05-21 15:22:00,93.0,65.1,29.90,SW,226,0.0,238.7,40,0.02,,,0.00,VWS V14.01,2013-05-21 19:22:00,
2013-05-21 15:27:00,93.8,65.3,29.90,West,271,3.4,238.7,39,0.02,,,0.00,VWS V14.01,2013-05-21 19:27:00,
2013-05-21 15:33:00,94.3,66.9,29.89,SW,222,0.0,238.7,41,0.02,,,0.00,VWS V14.01,2013-05-21 19:33:00,
2013-05-21 15:38:00,94.8,66.0,29.89,West,259,5.8,238.7,39,0.02,,,0.00,VWS V14.01,2013-05-21 19:38:00,
2013-05-21 15:43:00,94.2,64.9,29.89,SW,222,0.0,238.7,38,0.02,,,0.00,VWS V14.01,2013-05-21 19:43:00,
2013-05-21 15:48:00,94.2,64.8,29.88,South,174,0.0,238.7,38,0.02,,,0.00,VWS V14.01,2013-05-21 19:48:00,
2013-05-21 15:53:00,94.8,64.3,29.88,WSW,240,0.0,238.7,37,0.02,,,0.00,VWS V14.01,2013-05-21 19:53:00,
2013-05-21 15:59:00,94.4,65.1,29.88,SE,143,0.0,238.7,38,0.02,,,0.00,VWS V14.01,2013-05-21 19:59:00,
2013-05-21 16:04:00,94.8,65.3,29.88,South,191,0.0,238.7,38,0.02,,,0.00,VWS V14.01,2013-05-21 20:04:00,
2013-05-21 16:09:00,95.0,65.3,29.88,NE,46,0.0,238.7,38,0.02,,,0.00,VWS V14.01,2013-05-21 20:09:00,
2013-05-21 16:14:00,95.0,63.9,29.87,SW,226,3.1,238.7,36,0.02,,,0.00,VWS V14.01,2013-05-21 20:14:00,
2013-05-21 16:20:00,94.4,65.8,29.87,SW,219,0.0,238.7,39,0.02,,,0.00,VWS V14.01,2013-05-21 20:20:00,
2013-05-21 16:25:00,94.3,65.2,29.88,SSW,202,0.0,238.7,38,0.02,,,0.00,VWS V14.01,2013-05-21 20:25:00,
2013-05-21 16:30:00,94.3,65.6,29.88,West,259,0.0,238.7,39,0.02,,,0.00,VWS V14.01,2013-05-21 20:30:00,
2013-05-21 16:35:00,94.2,65.5,29.88,SW,222,0.0,238.7,39,0.02,,,0.00,VWS V14.01,2013-05-21 20:35:00,
2013-05-21 16:40:00,94.3,65.5,29.88,SSE,153,3.5,238.7,39,0.02,,,0.00,VWS V14.01,2013-05-21 20:40:00,
2013-05-21 16:45:00,93.9,65.3,29.87,WSW,246,0.0,238.7,39,0.02,,,0.00,VWS V14.01,2013-05-21 20:45:00,
2013-05-21 16:51:00,93.7,65.3,29.87,SW,219,0.0,238.7,39,0.02,,,0.00,VWS V14.01,2013-05-21 20:51:00,
2013-05-21 16:56:00,93.8,65.8,29.87,SW,217,0.0,238.7,40,0.02,,,0.00,VWS V14.01,2013-05-21 20:56:00,
2013-05-21 17:01:00,94.1,66.3,29.87,SSW,208,0.0,238.7,40,0.02,,,0.00,VWS V14.01,2013-05-21 21:01:00,
2013-05-21 17:06:00,94.3,66.1,29.87,WNW,292,0.0,238.7,40,0.02,,,0.00,VWS V14.01,2013-05-21 21:06:00,
2013-05-21 17:11:00,95.0,65.6,29.87,SE,142,3.5,238.7,38,0.02,,,0.00,VWS V14.01,2013-05-21 21:11:00,
2013-05-21 17:17:00,95.0,64.4,29.87,SE,146,0.0,238.7,37,0.02,,,0.00,VWS V14.01,2013-05-21 21:17:00,
2013-05-21 17:22:00,95.5,65.7,29.86,WSW,242,6.8,238.7,38,0.02,,,0.00,VWS V14.01,2013-05-21 21:22:00,
2013-05-21 17:27:00,95.8,66.2,29.87,SSW,202,0.0,238.7,38,0.02,,,0.00,VWS V14.01,2013-05-21 21:27:00,
2013-05-21 17:32:00,96.0,66.6,29.87,SSW,202,0.0,238.7,38,0.02,,,0.00,VWS V14.01,2013-05-21 21:32:00,
2013-05-21 17:37:00,96.0,66.9,29.87,SSW,202,0.0,238.7,39,0.02,,,0.00,VWS V14.01,2013-05-21 21:37:00,
2013-05-21 17:43:00,95.3,66.5,29.87,SSE,158,0.0,238.7,39,0.02,,,0.00,VWS V14.01,2013-05-21 21:43:00,
2013-05-21 17:48:00,94.8,66.9,29.87,SSW,193,0.0,238.7,40,0.02,,,0.00,VWS V14.01,2013-05-21 21:48:00,
2013-05-21 17:53:00,94.3,67.0,29.87,SSW,193,3.5,238.7,41,0.02,,,0.00,VWS V14.01,2013-05-21 21:53:00,
2013-05-21 17:59:00,93.5,66.6,29.87,SW,229,0.0,238.7,41,0.02,,,0.00,VWS V14.01,2013-05-21 21:59:00,
2013-05-21 18:04:00,92.4,66.5,29.87,SW,229,0.0,238.7,43,0.02,,,0.00,VWS V14.01,2013-05-21 22:04:00,
2013-05-21 18:09:00,91.4,66.8,29.87,South,170,0.0,238.7,45,0.02,,,0.00,VWS V14.01,2013-05-21 22:09:00,
2013-05-21 18:14:00,90.7,66.5,29.87,South,170,0.0,238.7,45,0.02,,,0.00,VWS V14.01,2013-05-21 22:14:00,
2013-05-21 18:20:00,89.9,66.6,29.88,East,87,2.2,238.7,46,0.02,,,0.00,VWS V14.01,2013-05-21 22:20:00,
2013-05-21 18:25:00,89.8,66.7,29.88,SSE,159,0.0,238.7,47,0.02,,,0.00,VWS V14.01,2013-05-21 22:25:00,
2013-05-21 18:30:00,89.6,66.6,29.87,SSE,160,0.0,238.7,47,0.02,,,0.00,VWS V14.01,2013-05-21 22:30:00,
2013-05-21 18:36:00,89.3,66.8,29.87,SE,128,0.0,238.7,48,0.02,,,0.00,VWS V14.01,2013-05-21 22:36:00,
2013-05-21 18:41:00,88.7,66.6,29.87,SSW,207,0.0,238.7,48,0.02,,,0.00,VWS V14.01,2013-05-21 22:41:00,
2013-05-21 18:47:00,87.9,66.4,29.87,SE,131,0.0,238.7,49,0.02,,,0.00,VWS V14.01,2013-05-21 22:47:00,
2013-05-21 18:52:00,87.4,66.4,29.88,SE,131,0.0,238.7,50,0.02,,,0.00,VWS V14.01,2013-05-21 22:52:00,
2013-05-21 18:57:00,86.8,66.3,29.88,South,169,0.0,238.7,51,0.02,,,0.00,VWS V14.01,2013-05-21 22:57:00,
2013-05-21 19:03:00,86.4,66.2,29.88,South,169,0.0,238.7,51,0.02,,,0.00,VWS V14.01,2013-05-21 23:03:00,
2013-05-21 19:11:00,85.8,66.3,29.88,South,169,0.0,238.7,52,0.02,,,0.00,VWS V14.01,2013-05-21 23:11:00,
2013-05-21 19:16:00,85.4,66.2,29.88,South,169,0.0,238.7,53,0.02,,,0.00,VWS V14.01,2013-05-21 23:16:00,
2013-05-21 19:22:00,84.7,66.1,29.89,SW,235,0.0,238.7,54,0.02,,,0.00,VWS V14.01,2013-05-21 23:22:00,
2013-05-21 19:28:00,84.3,66.2,29.89,SE,138,0.0,238.7,55,0.02,,,0.00,VWS V14.01,2013-05-21 23:28:00,
2013-05-21 19:33:00,83.7,66.0,29.89,SE,138,0.0,238.7,55,0.02,,,0.00,VWS V14.01,2013-05-21 23:33:00,
2013-05-21 19:39:00,83.3,66.3,29.88,SE,138,0.0,238.7,57,0.02,,,0.00,VWS V14.01,2013-05-21 23:39:00,
2013-05-21 19:44:00,82.9,66.5,29.88,SE,138,0.0,238.7,58,0.02,,,0.00,VWS V14.01,2013-05-21 23:44:00,
2013-05-21 19:50:00,82.5,66.4,29.88,SE,138,0.0,238.7,58,0.02,,,0.00,VWS V14.01,2013-05-21 23:50:00,
2013-05-21 19:56:00,82.1,66.8,29.89,SE,138,0.0,238.7,60,0.02,,,0.00,VWS V14.01,2013-05-21 23:56:00,
2013-05-21 20:01:00,81.6,66.4,29.89,SE,138,0.0,238.7,60,0.02,,,0.00,VWS V14.01,2013-05-22 00:01:00,
2013-05-21 20:07:00,81.5,66.7,29.89,SE,138,0.0,238.7,61,0.02,,,0.00,VWS V14.01,2013-05-22 00:07:00,
2013-05-21 20:13:00,81.2,66.5,29.89,SE,138,0.0,238.7,61,0.02,,,0.00,VWS V14.01,2013-05-22 00:13:00,
2013-05-21 20:18:00,80.7,66.4,29.89,SE,138,0.0,238.7,62,0.02,,,0.00,VWS V14.01,2013-05-22 00:18:00,
2013-05-21 20:23:00,80.5,66.5,29.89,SE,138,0.0,238.7,62,0.02,,,0.00,VWS V14.01,2013-05-22 00:23:00,
2013-05-21 20:29:00,80.3,66.7,29.89,SE,138,0.0,238.7,63,0.02,,,0.00,VWS V14.01,2013-05-22 00:29:00,
2013-05-21 20:35:00,79.9,66.7,29.89,SE,138,0.0,238.7,64,0.02,,,0.00,VWS V14.01,2013-05-22 00:35:00,
2013-05-21 20:41:00,79.5,66.6,29.89,SE,138,0.0,238.7,65,0.02,,,0.00,VWS V14.01,2013-05-22 00:41:00,
2013-05-21 20:46:00,79.3,66.7,29.89,SE,138,0.0,238.7,65,0.02,,,0.00,VWS V14.01,2013-05-22 00:46:00,
2013-05-21 20:52:00,79.2,66.9,29.90,SE,138,0.0,238.7,66,0.02,,,0.00,VWS V14.01,2013-05-22 00:52:00,
2013-05-21 20:58:00,79.0,66.9,29.89,SE,138,0.0,238.7,67,0.02,,,0.00,VWS V14.01,2013-05-22 00:58:00,
2013-05-21 21:03:00,79.0,67.0,29.89,SE,138,0.0,238.7,67,0.02,,,0.00,VWS V14.01,2013-05-22 01:03:00,
2013-05-21 21:09:00,78.8,67.1,29.89,SE,138,0.0,238.7,68,0.02,,,0.00,VWS V14.01,2013-05-22 01:09:00,
2013-05-21 21:14:00,78.3,66.9,29.89,SE,138,0.0,238.7,68,0.02,,,0.00,VWS V14.01,2013-05-22 01:14:00,
2013-05-21 21:20:00,78.1,66.9,29.88,SE,138,0.0,238.7,68,0.02,,,0.00,VWS V14.01,2013-05-22 01:20:00,
2013-05-21 21:25:00,77.9,66.9,29.88,SE,138,0.0,238.7,69,0.02,,,0.00,VWS V14.01,2013-05-22 01:25:00,
2013-05-21 21:30:00,77.7,67.1,29.88,SE,138,0.0,238.7,70,0.02,,,0.00,VWS V14.01,2013-05-22 01:30:00,
2013-05-21 21:36:00,77.3,67.1,29.88,SE,138,0.0,238.7,71,0.02,,,0.00,VWS V14.01,2013-05-22 01:36:00,
2013-05-21 21:41:00,77.1,67.0,29.88,SE,138,0.0,238.7,71,0.02,,,0.00,VWS V14.01,2013-05-22 01:41:00,
2013-05-21 21:47:00,76.9,67.2,29.88,SE,138,0.0,238.7,72,0.02,,,0.00,VWS V14.01,2013-05-22 01:47:00,
2013-05-21 21:53:00,76.7,67.4,29.88,SE,138,0.0,238.7,73,0.02,,,0.00,VWS V14.01,2013-05-22 01:53:00,
2013-05-21 21:59:00,76.3,67.3,29.89,SE,138,0.0,238.7,74,0.02,,,0.00,VWS V14.01,2013-05-22 01:59:00,
2013-05-21 22:04:00,76.1,67.3,29.89,SE,138,0.0,238.7,74,0.02,,,0.00,VWS V14.01,2013-05-22 02:04:00,
2013-05-21 22:10:00,75.9,67.7,29.89,SE,138,0.0,238.7,76,0.02,,,0.00,VWS V14.01,2013-05-22 02:10:00,
2013-05-21 22:16:00,75.6,67.6,29.89,SE,138,0.0,238.7,76,0.02,,,0.00,VWS V14.01,2013-05-22 02:16:00,
2013-05-21 22:22:00,75.5,67.3,29.88,SE,138,0.0,238.7,76,0.02,,,0.00,VWS V14.01,2013-05-22 02:22:00,
2013-05-21 22:27:00,75.4,67.4,29.88,SE,138,0.0,238.7,76,0.02,,,0.00,VWS V14.01,2013-05-22 02:27:00,
2013-05-21 22:33:00,75.2,67.6,29.88,SE,138,0.0,238.7,77,0.02,,,0.00,VWS V14.01,2013-05-22 02:33:00,
2013-05-21 22:39:00,74.9,67.5,29.88,SW,219,0.0,238.7,78,0.02,,,0.00,VWS V14.01,2013-05-22 02:39:00,
2013-05-21 22:44:00,74.8,67.8,29.88,SW,219,0.0,238.7,79,0.02,,,0.00,VWS V14.01,2013-05-22 02:44:00,
2013-05-21 22:50:00,74.6,67.5,29.88,SW,219,0.0,238.7,79,0.02,,,0.00,VWS V14.01,2013-05-22 02:50:00,
2013-05-21 22:55:00,74.6,67.5,29.88,SW,219,0.0,238.7,78,0.02,,,0.00,VWS V14.01,2013-05-22 02:55:00,
2013-05-21 23:00:00,74.5,67.9,29.88,SW,219,0.0,238.7,80,0.02,,,0.00,VWS V14.01,2013-05-22 03:00:00,
2013-05-21 23:06:00,74.3,67.7,29.88,SW,219,0.0,238.7,80,0.02,,,0.00,VWS V14.01,2013-05-22 03:06:00,
2013-05-21 23:11:00,74.3,67.7,29.89,SW,219,0.0,238.7,80,0.02,,,0.00,VWS V14.01,2013-05-22 03:11:00,
2013-05-21 23:17:00,74.2,67.5,29.88,SW,219,0.0,238.7,80,0.02,,,0.00,VWS V14.01,2013-05-22 03:17:00,
2013-05-21 23:22:00,74.3,67.5,29.88,SW,219,0.0,238.7,79,0.02,,,0.00,VWS V14.01,2013-05-22 03:22:00,
2013-05-21 23:27:00,74.3,67.5,29.88,SW,219,0.0,238.7,79,0.02,,,0.00,VWS V14.01,2013-05-22 03:27:00,
2013-05-21 23:33:00,74.2,67.6,29.89,SW,219,0.0,238.7,80,0.02,,,0.00,VWS V14.01,2013-05-22 03:33:00,
2013-05-21 23:39:00,74.0,67.3,29.89,SW,219,0.0,238.7,80,0.02,,,0.00,VWS V14.01,2013-05-22 03:39:00,
2013-05-21 23:44:00,74.0,67.3,29.88,SW,219,0.0,238.7,80,0.02,,,0.00,VWS V14.01,2013-05-22 03:44:00,
2013-05-21 23:50:00,74.0,67.3,29.88,SW,219,0.0,238.7,80,0.02,,,0.00,VWS V14.01,2013-05-22 03:50:00,
2013-05-21 23:55:00,74.0,67.2,29.88,SW,219,0.0,238.7,79,0.02,,,0.00,VWS V14.01,2013-05-22 03:55:00,